Air Resources Laboratory banner image
Air Resources Laboratory web site National Oceanic and Atmospheric Administration (NOAA)

ne roundup


Office: OAX
ASUS43 KOAX 222202
RWRNE

WEATHER ROUNDUP FOR NEBRASKA
NATIONAL WEATHER SERVICE OMAHA NE
500 PM CDT SAT JUN 22 2024

NOTES: SATELLITE DATA IS BEING USED TO AUGMENT CLOUD COVER ABOVE
       12000 FEET.
       "FAIR" INDICATES FEW OR NO CLOUDS BELOW 12,000 FEET WITH NO
       SIGNIFICANT WEATHER AND/OR OBSTRUCTIONS TO VISIBILITY.


NEZ001>004-019>022-054>056-222300-
NEBRASKA PANHANDLE

CITY           SKY/WX    TMP DP  RH WIND       PRES   REMARKS
SCOTTSBLUFF    SUNNY     89  46  22 VRB3      30.00F
ALLIANCE       SUNNY     84  57  39 SE8       30.01F
CHADRON        SUNNY     87  55  33 SW5       29.96F
SIDNEY         SUNNY     87  45  23 CALM      30.05F
$$

NEZ057>060-069>072-079>082-222300-
SOUTHWEST NEBRASKA

CITY           SKY/WX    TMP DP  RH WIND       PRES   REMARKS
NORTH PLATTE   SUNNY     87  64  46 CALM      29.98S
IMPERIAL       SUNNY     91  54  28 VRB6      30.01F
MCCOOK         PTSUNNY   87  64  46 VRB5      29.97F
$$

NEZ005>010-023>029-035>040-094-222300-
NORTH CENTRAL NEBRASKA

CITY           SKY/WX    TMP DP  RH WIND       PRES   REMARKS
VALENTINE      SUNNY     83  58  42 N12       29.96S
ORD            SUNNY     84  66  54 NW14      29.91S
$$

NEZ041-046>049-061>064-073>077-083>087-222300-
SOUTH CENTRAL NEBRASKA

CITY           SKY/WX    TMP DP  RH WIND       PRES   REMARKS
GRAND ISLAND   MOSUNNY   84  67  56 N13       29.90S
HASTINGS       MOSUNNY   85  68  56 N15       29.92R
KEARNEY        PTSUNNY   83  66  56 NW10      29.93F
$$

NEZ011>018-030>034-042>045-222300-
NORTHEAST NEBRASKA

CITY           SKY/WX    TMP DP  RH WIND       PRES   REMARKS
NORFOLK        MOSUNNY   84  66  54 N16G25    29.87R
COLUMBUS       MOSUNNY   84  69  60 NW13      29.88S
TEKAMAH        PTSUNNY   82  71  69 NW14      29.83R
$$

NEZ050>053-065>068-078-088>093-222300-
SOUTHEAST NEBRASKA

CITY           SKY/WX    TMP DP  RH WIND       PRES   REMARKS
LINCOLN        MOSUNNY   87  72  60 NW16      29.85R HX  93
OMAHA EPPLEY   CLOUDY    84  74  71 NW17      29.81R HX  91
FALLS CITY     MOSUNNY   93  74  53 S9        29.78F HX 103
$$

NEZ044-045-051>053-067-222300-
OMAHA AREA

CITY           SKY/WX    TMP DP  RH WIND       PRES   REMARKS
OMAHA EPPLEY   CLOUDY    84  74  71 NW17      29.81R HX  91
OFFUTT AFB     PTSUNNY   87  73  61 NW12      29.79S HX  94
$$


ASUS43 KOAX 222210
RWRNE

WEATHER ROUNDUP FOR NEBRASKA
NATIONAL WEATHER SERVICE OMAHA NE
500 PM CDT SAT JUN 22 2024

NOTES: SATELLITE DATA IS BEING USED TO AUGMENT CLOUD COVER ABOVE
       12000 FEET.
       "FAIR" INDICATES FEW OR NO CLOUDS BELOW 12,000 FEET WITH NO
       SIGNIFICANT WEATHER AND/OR OBSTRUCTIONS TO VISIBILITY.


NEZ001>004-019>022-054>056-222300-
NEBRASKA PANHANDLE

CITY           SKY/WX    TMP DP  RH WIND       PRES   REMARKS
SCOTTSBLUFF    SUNNY     89  46  22 VRB3      30.00F
ALLIANCE       SUNNY     84  57  39 SE8       30.01F
CHADRON        SUNNY     87  55  33 SW5       29.96F
GORDON         SUNNY     82  55  38 SW6       30.01S
KIMBALL        MOSUNNY   88  44  21 CALM      30.10S
SIDNEY         SUNNY     87  45  23 CALM      30.05F
$$

NEZ057>060-069>072-079>082-222300-
SOUTHWEST NEBRASKA

CITY           SKY/WX    TMP DP  RH WIND       PRES   REMARKS
NORTH PLATTE   SUNNY     87  64  46 CALM      29.98S
GRANT          SUNNY     86  57  37 VRB6      30.02S
IMPERIAL       SUNNY     91  54  28 VRB6      30.01F
LEXINGTON      MOSUNNY   83  67  58 NW9       29.96F
MCCOOK         PTSUNNY   87  64  46 VRB5      29.97F
OGALLALA       SUNNY     87  60  39 NE5       30.02S
$$

NEZ005>010-023>029-035>040-094-222300-
NORTH CENTRAL NEBRASKA

CITY           SKY/WX    TMP DP  RH WIND       PRES   REMARKS
VALENTINE      SUNNY     83  58  42 N12       29.96S
AINSWORTH      SUNNY     80  61  51 NE7       29.97S
O'NEILL        PTSUNNY   79  66  63 N12G18    29.94R
ORD            SUNNY     84  66  54 NW14      29.91S
THEDFORD       SUNNY     82  60  46 NW7       29.99S
$$

NEZ041-046>049-061>064-073>077-083>087-222300-
SOUTH CENTRAL NEBRASKA

CITY           SKY/WX    TMP DP  RH WIND       PRES   REMARKS
GRAND ISLAND   PTSUNNY   84  67  56 N13       29.90S
AURORA         PTSUNNY   82  69  65 N8        29.90S
HASTINGS       MOSUNNY   85  68  56 N15       29.92R
HEBRON         PTSUNNY   85  70  60 N14       29.87S HX  90
HOLDREGE       PTSUNNY   84  65  53 NW10      29.94S
KEARNEY        PTSUNNY   83  66  56 NW10      29.93F
YORK           MOSUNNY   81  70  69 N8G14     29.88F
$$

NEZ011>018-030>034-042>045-222300-
NORTHEAST NEBRASKA

CITY           SKY/WX    TMP DP  RH WIND       PRES   REMARKS
NORFOLK        MOSUNNY   84  66  54 N16G25    29.87R
ALBION         MOSUNNY   81  67  62 N13       29.90S
BLAIR          CLOUDY    80  72  75 NW16      29.84R
COLUMBUS       MOSUNNY   84  69  60 NW13      29.88S
FREMONT        PTSUNNY   81  69  66 NW8       29.86R
TEKAMAH        PTSUNNY   82  71  69 NW14      29.83R
$$

NEZ050>053-065>068-078-088>093-222300-
SOUTHEAST NEBRASKA

CITY           SKY/WX    TMP DP  RH WIND       PRES   REMARKS
LINCOLN        MOSUNNY   87  72  60 NW16      29.85R HX  93
OMAHA EPPLEY   CLOUDY    84  74  71 NW17      29.81R HX  91
BEATRICE       MOSUNNY   89  72  56 NW12      29.83S HX  96
FALLS CITY     MOSUNNY   93  74  53 S9        29.78F HX 103
NEBRASKA CITY  MOSUNNY   89  74  60 NW15      29.81R HX  97
$$

NEZ044-045-051>053-067-222300-
OMAHA AREA

CITY           SKY/WX    TMP DP  RH WIND       PRES   REMARKS
OMAHA EPPLEY   CLOUDY    84  74  71 NW17      29.81R HX  91
BLAIR          CLOUDY    80  72  75 NW16      29.84R
FREMONT        PTSUNNY   81  69  66 NW8       29.86R
MILLARD        CLOUDY    83  72  67 NW13      29.83R
OFFUTT AFB     PTSUNNY   87  73  61 NW12      29.79S HX  94
WAHOO          PTSUNNY   81  71  71 NW13      29.85R
$$


ASUS43 KOAX 222213
RWRNE

WEATHER ROUNDUP FOR NEBRASKA
NATIONAL WEATHER SERVICE OMAHA NE
500 PM CDT SAT JUN 22 2024

NOTES: SATELLITE DATA IS BEING USED TO AUGMENT CLOUD COVER ABOVE
       12000 FEET.
       "FAIR" INDICATES FEW OR NO CLOUDS BELOW 12,000 FEET WITH NO
       SIGNIFICANT WEATHER AND/OR OBSTRUCTIONS TO VISIBILITY.


NEZ001>004-019>022-054>056-222300-
NEBRASKA PANHANDLE

CITY           SKY/WX    TMP DP  RH WIND       PRES   REMARKS
SCOTTSBLUFF    SUNNY     89  46  22 VRB3      30.00F
ALLIANCE       SUNNY     84  57  39 SE8       30.01F
CHADRON        SUNNY     87  55  33 SW5       29.96F
GORDON         SUNNY     82  55  38 SW6       30.01S
KIMBALL        MOSUNNY   88  44  21 CALM      30.10S
SIDNEY         SUNNY     87  45  23 CALM      30.05F
$$

NEZ057>060-069>072-079>082-222300-
SOUTHWEST NEBRASKA

CITY           SKY/WX    TMP DP  RH WIND       PRES   REMARKS
NORTH PLATTE   SUNNY     87  64  46 CALM      29.98S
GRANT          SUNNY     86  57  37 VRB6      30.02S
IMPERIAL       SUNNY     91  54  28 VRB6      30.01F
LEXINGTON      MOSUNNY   83  67  58 NW9       29.96F
MCCOOK         PTSUNNY   87  64  46 VRB5      29.97F
OGALLALA       SUNNY     87  60  39 NE5       30.02S
$$

NEZ005>010-023>029-035>040-094-222300-
NORTH CENTRAL NEBRASKA

CITY           SKY/WX    TMP DP  RH WIND       PRES   REMARKS
VALENTINE      SUNNY     83  58  42 N12       29.96S
AINSWORTH      SUNNY     80  61  51 NE7       29.97S
O'NEILL        PTSUNNY   79  66  63 N12G18    29.94R
ORD            SUNNY     84  66  54 NW14      29.91S
THEDFORD       SUNNY     82  60  46 NW7       29.99S
$$

NEZ041-046>049-061>064-073>077-083>087-222300-
SOUTH CENTRAL NEBRASKA

CITY           SKY/WX    TMP DP  RH WIND       PRES   REMARKS
GRAND ISLAND   PTSUNNY   84  67  56 N13       29.90S
AURORA         PTSUNNY   82  69  65 N8        29.90S
HASTINGS       MOSUNNY   85  68  56 N15       29.92R
HEBRON         PTSUNNY   85  70  60 N14       29.87S HX  90
HOLDREGE       PTSUNNY   84  65  53 NW10      29.94S
KEARNEY        PTSUNNY   83  66  56 NW10      29.93F
YORK           MOSUNNY   81  70  69 N8G14     29.88F
$$

NEZ011>018-030>034-042>045-222300-
NORTHEAST NEBRASKA

CITY           SKY/WX    TMP DP  RH WIND       PRES   REMARKS
NORFOLK        MOSUNNY   84  66  54 N16G25    29.87R
ALBION         MOSUNNY   81  67  62 N13       29.90S
BLAIR          CLOUDY    80  72  75 NW16      29.84R
COLUMBUS       MOSUNNY   84  69  60 NW13      29.88S
FREMONT        PTSUNNY   81  69  66 NW8       29.86R
TEKAMAH        PTSUNNY   82  71  69 NW14      29.83R
$$

NEZ050>053-065>068-078-088>093-222300-
SOUTHEAST NEBRASKA

CITY           SKY/WX    TMP DP  RH WIND       PRES   REMARKS
LINCOLN        MOSUNNY   87  72  60 NW16      29.85R HX  93
OMAHA EPPLEY   CLOUDY    84  74  71 NW17      29.81R HX  91
BEATRICE       MOSUNNY   89  72  56 NW12      29.83S HX  96
FALLS CITY     MOSUNNY   93  74  53 S9        29.78F HX 103
NEBRASKA CITY  MOSUNNY   89  74  60 NW15      29.81R HX  97
$$

NEZ044-045-051>053-067-222300-
OMAHA AREA

CITY           SKY/WX    TMP DP  RH WIND       PRES   REMARKS
OMAHA EPPLEY   CLOUDY    84  74  71 NW17      29.81R HX  91
BLAIR          CLOUDY    80  72  75 NW16      29.84R
FREMONT        PTSUNNY   81  69  66 NW8       29.86R
MILLARD        CLOUDY    83  72  67 NW13      29.83R
OFFUTT AFB     PTSUNNY   87  73  61 NW12      29.79S HX  94
WAHOO          PTSUNNY   81  71  71 NW13      29.85R
$$




Office: FSD ASUS43 KFSD 222202 RWRSD WEATHER ROUNDUP FOR SOUTH DAKOTA NATIONAL WEATHER SERVICE SIOUX FALLS SD 500 PM CDT SAT JUN 22 2024 NOTE: "FAIR" INDICATES FEW OR NO CLOUDS BELOW 12,000 FEET WITH NO SIGNIFICANT WEATHER AND/OR OBSTRUCTIONS TO VISIBILITY. SDZ001>005-009-010-012>017-222300- NORTHWEST AND NORTH CENTRAL SOUTH DAKOTA CITY SKY/WX TMP DP RH WIND PRES REMARKS BUFFALO N/A 83 55 38 N8 29.93F TC 28 FAITH N/A 82 59 45 N8 29.95S TC 28 MOBRIDGE SUNNY 81 63 54 NW9 29.88F TC 27 $$ SDZ012>016-024>037-041>051-057-063-072>074-222300- SOUTHWEST AND SOUTH CENTRAL SOUTH DAKOTA CITY SKY/WX TMP DP RH WIND PRES REMARKS RAPID CTY ARPT MOSUNNY 85 56 37 VRB3 29.97S TC 29 PIERRE SUNNY 82 60 47 W5 29.90F TC 28 CUSTER MOSUNNY 80 45 28 W9G18 30.10S TC 27 ELLSWORTH AFB PTSUNNY 83 53 35 W6 29.95S TC 28 PHILIP SUNNY 85 58 39 W9 29.92S TC 29 PINE RIDGE SUNNY 85 51 31 CALM 29.97F TC 29 SPEARFISH SUNNY 79 55 44 E6 30.03S TC 26 WINNER MOSUNNY 81 65 58 NW8 29.94S TC 27 $$ SDZ004>011-016>023-039-040-222300- NORTHEAST SOUTH DAKOTA CITY SKY/WX TMP DP RH WIND PRES REMARKS ABERDEEN SUNNY 80 65 59 W9 29.85F TC 27 WATERTOWN SUNNY 75 64 68 N3 29.86F TC 24 BROOKINGS MOSUNNY 73 64 73 N13 29.88S TC 23 SISSETON N/A 77 65 66 NW12 29.85S TC 25 $$ SDZ017-020-022-023-036>040-048>070-222300- SOUTHEAST SOUTH DAKOTA CITY SKY/WX TMP DP RH WIND PRES REMARKS SIOUX FALLS MOSUNNY 79 67 66 NW10G22 29.85S TC 26 HURON MOSUNNY 79 64 60 NW13 29.88F TC 26 MADISON N/A 73 72 94 N14 29.87S TC 23 MITCHELL SUNNY 79 66 64 NW16 29.89R TC 26 YANKTON N/A 79 67 66 NW15 29.87S TC 26 $$ ABBREVIATIONS USED IN REMARKS TC - TEMPERATURE IN CELSIUS WCI - WIND CHILL INDEX HX - HEAT INDEX VSB - VISIBILITY ASUS43 KFSD 222202 RWRFSD WEATHER ROUNDUP FOR SE SOUTH DAKOTA/SW MINNESOTA/NW IOWA NATIONAL WEATHER SERVICE SIOUX FALLS SD 500 PM CDT SAT JUN 22 2024 NOTE: "FAIR" INDICATES FEW OR NO CLOUDS BELOW 12,000 FEET WITH NO SIGNIFICANT WEATHER AND OR OBSTRUCTIONS TO VISIBILITY. SDZ038>040-050-052>070-222300- SOUTHEAST SOUTH DAKOTA CITY SKY/WX TMP DP RH WIND PRES REMARKS BROOKINGS MOSUNNY 73 64 73 N13 29.88S TC 23 HURON MOSUNNY 79 64 60 NW13 29.88F TC 26 MADISON N/A 73 72 94 N14 29.87S TC 23 MITCHELL SUNNY 79 66 64 NW16 29.89R TC 26 SIOUX FALLS MOSUNNY 79 67 66 NW10G22 29.85S TC 26 WINNER MOSUNNY 81 65 58 NW8 29.94S TC 27 YANKTON N/A 79 67 66 NW15 29.87S TC 26 $$ MNZ071-072-080-081-089-090-097-098-222300- SOUTHWEST MINNESOTA CITY SKY/WX TMP DP RH WIND PRES REMARKS FAIRMONT LGT RAIN 74 70 87 W8 29.79S TC 23 JACKSON N/A 72 66 83 NW17G23 29.82R TC 22 LUVERNE CLOUDY 75 64 69 N10G18 29.85R TC 24 MARSHALL CLOUDY 72 66 81 MISG 29.85 TC 22 MONTEVIDEO PTSUNNY 70 66 88 N13 29.84F TC 21 REDWOOD FALLS LGT RAIN 70 67 90 N8G17 29.81R FOG TC 21 TRACY PTSUNNY 72 70 94 N14G22 29.84R TC 22 WINDOM PTSUNNY 73 66 78 NW15 29.81R TC 23 WORTHINGTON CLOUDY 72 69 90 N17 29.84R TC 22 $$ IAZ001>003-012>014-020>022-031-032-NEZ013-014-SDZ071-222300- NORTHWEST IOWA CITY SKY/WX TMP DP RH WIND PRES REMARKS ESTHERVILLE CLOUDY 76 69 79 NW13 29.79R TC 24 SIOUX CITY PTSUNNY 80 70 71 NW17G24 29.82S TC 27 SPENCER LGT RAIN 80 69 69 NW15G22 29.80R TC 27 $$ ABBREVIATIONS USED IN REMARKS TC - TEMPERATURE IN CELSIUS WCI - WIND CHILL INDEX HX - HEAT INDEX VSB - VISIBILITY ASUS43 KFSD 222210 RWRFSD WEATHER ROUNDUP FOR SE SOUTH DAKOTA/SW MINNESOTA/NW IOWA NATIONAL WEATHER SERVICE SIOUX FALLS SD 500 PM CDT SAT JUN 22 2024 NOTE: "FAIR" INDICATES FEW OR NO CLOUDS BELOW 12,000 FEET WITH NO SIGNIFICANT WEATHER AND OR OBSTRUCTIONS TO VISIBILITY. SDZ038>040-050-052>070-222300- SOUTHEAST SOUTH DAKOTA CITY SKY/WX TMP DP RH WIND PRES REMARKS BROOKINGS MOSUNNY 73 64 73 N13 29.88S TC 23 CHAMBERLAIN SUNNY 78 64 60 N9 29.92S TC 26 HURON MOSUNNY 79 64 60 NW13 29.88F TC 26 MADISON N/A 73 72 94 N14 29.87S TC 23 MITCHELL SUNNY 79 66 64 NW16 29.89R TC 26 SIOUX FALLS MOSUNNY 79 67 66 NW10G22 29.85S TC 26 WINNER MOSUNNY 81 65 58 NW8 29.94S TC 27 YANKTON N/A 79 67 66 NW15 29.87S TC 26 $$ MNZ071-072-080-081-089-090-097-098-222300- SOUTHWEST MINNESOTA CITY SKY/WX TMP DP RH WIND PRES REMARKS FAIRMONT LGT RAIN 74 70 87 W8 29.79S TC 23 JACKSON N/A 72 66 83 NW17G23 29.82R TC 22 LUVERNE CLOUDY 75 64 69 N10G18 29.85R TC 24 MARSHALL CLOUDY 72 66 81 MISG 29.85 TC 22 MONTEVIDEO PTSUNNY 70 66 88 N13 29.84F TC 21 REDWOOD FALLS CLOUDY 71 67 87 N9 29.81R TC 22 TRACY PTSUNNY 72 70 94 N14G22 29.84R TC 22 WINDOM PTSUNNY 73 66 78 NW15 29.81R TC 23 WORTHINGTON CLOUDY 72 69 90 N17 29.84R TC 22 $$ IAZ001>003-012>014-020>022-031-032-NEZ013-014-SDZ071-222300- NORTHWEST IOWA CITY SKY/WX TMP DP RH WIND PRES REMARKS CHEROKEE CLOUDY 81 70 69 NW13G20 29.80S TC 27 DENISON PTSUNNY 81 79 94 W13G23 29.83R TC 27 ESTHERVILLE CLOUDY 76 69 79 NW13 29.79R TC 24 LE MARS N/A N/A N/A N/A MISG N/A MAURICE MOSUNNY 77 70 78 NW20G25 29.80F TC 25 SHELDON PTSUNNY 77 70 78 NW15G22 29.80S TC 25 SIOUX CITY PTSUNNY 80 70 71 NW17G24 29.82S TC 27 SPENCER LGT RAIN 80 69 69 NW15G22 29.80R TC 27 STORM LAKE MOSUNNY 81 73 78 W16G22 29.81R TC 27 $$ ABBREVIATIONS USED IN REMARKS TC - TEMPERATURE IN CELSIUS WCI - WIND CHILL INDEX HX - HEAT INDEX VSB - VISIBILITY ASUS43 KFSD 222210 RWRSD WEATHER ROUNDUP FOR SOUTH DAKOTA NATIONAL WEATHER SERVICE SIOUX FALLS SD 500 PM CDT SAT JUN 22 2024 NOTE: "FAIR" INDICATES FEW OR NO CLOUDS BELOW 12,000 FEET WITH NO SIGNIFICANT WEATHER AND/OR OBSTRUCTIONS TO VISIBILITY. SDZ001>005-009-010-012>017-222300- NORTHWEST AND NORTH CENTRAL SOUTH DAKOTA CITY SKY/WX TMP DP RH WIND PRES REMARKS BUFFALO N/A 83 55 38 N8 29.93F TC 28 FAITH N/A 82 59 45 N8 29.95S TC 28 MOBRIDGE SUNNY 81 63 54 NW9 29.88F TC 27 $$ SDZ012>016-024>037-041>051-057-063-072>074-222300- SOUTHWEST AND SOUTH CENTRAL SOUTH DAKOTA CITY SKY/WX TMP DP RH WIND PRES REMARKS RAPID CTY ARPT MOSUNNY 85 56 37 VRB3 29.97S TC 29 PIERRE SUNNY 82 60 47 W5 29.90F TC 28 CUSTER MOSUNNY 80 45 28 W9G18 30.10S TC 27 ELLSWORTH AFB PTSUNNY 83 53 35 W6 29.95S TC 28 PHILIP SUNNY 85 58 39 W9 29.92S TC 29 PINE RIDGE SUNNY 85 51 31 CALM 29.97F TC 29 SPEARFISH MOSUNNY 79 55 44 E6 30.03S TC 26 WINNER MOSUNNY 81 65 58 NW8 29.94S TC 27 $$ SDZ004>011-016>023-039-040-222300- NORTHEAST SOUTH DAKOTA CITY SKY/WX TMP DP RH WIND PRES REMARKS ABERDEEN SUNNY 80 65 59 W9 29.85F TC 27 WATERTOWN SUNNY 75 64 68 N3 29.86F TC 24 BROOKINGS MOSUNNY 73 64 73 N13 29.88S TC 23 SISSETON N/A 77 65 66 NW12 29.85S TC 25 $$ SDZ017-020-022-023-036>040-048>070-222300- SOUTHEAST SOUTH DAKOTA CITY SKY/WX TMP DP RH WIND PRES REMARKS SIOUX FALLS MOSUNNY 79 67 66 NW10G22 29.85S TC 26 HURON MOSUNNY 79 64 60 NW13 29.88F TC 26 CHAMBERLAIN SUNNY 78 64 60 N9 29.92S TC 26 MADISON N/A 73 72 94 N14 29.87S TC 23 MITCHELL SUNNY 79 66 64 NW16 29.89R TC 26 YANKTON N/A 79 67 66 NW15 29.87S TC 26 $$ ABBREVIATIONS USED IN REMARKS TC - TEMPERATURE IN CELSIUS WCI - WIND CHILL INDEX HX - HEAT INDEX VSB - VISIBILITY
Office: EAX ASUS43 KEAX 222205 RWREAX WEATHER ROUNDUP FOR EASTERN KANSAS AND NORTHWEST MISSOURI NATIONAL WEATHER SERVICE KANSAS CITY/PLEASANT HILL MO 500 PM CDT SAT JUN 22 2024 KSZ040-057-103>105-MOZ028-029-037-043-222300- ...KANSAS CITY METROPOLITAN AREA... CITY SKY/WX TMP DP RH WIND PRES REMARKS K.C. INTL PTSUNNY 91 75 59 SW12 29.82S HX 101 K.C. DOWNTOWN MOSUNNY 95 70 44 SW18G29 29.80F HX 101 LEES SUMMIT MOSUNNY 94 70 45 SW21G31 29.83F HX 100 OLATHE - IXD MOSUNNY 95 70 44 SW24G33 29.83F HX 101 OLATHE - OJC PTSUNNY 93 70 46 SW12G26 29.83F HX 99 LAWRENCE MOSUNNY 96 74 48 SW9G18 29.80F HX 107 $$ MOZ001>008-011>017-020>025-030>033-038>040-044>046-053-054-222300- ...NORTHERN AND CENTRAL MISSOURI... CITY SKY/WX TMP DP RH WIND PRES REMARKS ST. JOSEPH MOSUNNY 93 76 57 SW16G23 29.79F HX 105 HARRISONVILLE SUNNY 97 68 38 SW13G18 29.87R HX 101 WHITEMAN AFB SUNNY 94 71 46 SW21G28 29.82F HX 100 CLINTON SUNNY 93 72 49 S14 29.86S HX 100 SEDALIA SUNNY 90 70 51 S18G26 29.87F HX 95 MARSHALL SUNNY 90 73 58 S16 29.85F HX 98 CHILLICOTHE N/A 93 72 50 S10G25 29.80F HX 101 MOBERLY MOSUNNY 93 68 43 SW15G25 29.85F HX 97 KIRKSVILLE SUNNY 90 72 55 S15G25 29.83F HX 97 $$ MOZ041-047>049-056>058-063>065-088>090-097-222300- ...EASTERN AND SOUTHERN MISSOURI... CITY SKY/WX TMP DP RH WIND PRES REMARKS ST. LOUIS INTL PTSUNNY 94 67 41 SW14 29.89F HX 97 SPIRIT OF STL PTSUNNY 90 69 50 SW9 29.88F HX 94 COLUMBIA MOSUNNY 90 71 53 S14G23 29.88F HX 96 JEFFERSON CITY MOSUNNY 92 71 50 S15G24 29.87F HX 98 MEXICO PTSUNNY 90 73 58 S16G22 29.87F HX 98 HANNIBAL PTSUNNY 93 70 46 SW16G26 29.85F HX 99 ROLLA LGT RAIN 90 71 53 S16 29.95F HX 96 LEBANON MOSUNNY 90 70 51 SW15 29.96F HX 95 OSAGE BEACH MOSUNNY 91 72 53 SW16 29.91F HX 98 SPRINGFIELD MOSUNNY 90 70 51 SW16G23 29.94F HX 95 JOPLIN SUNNY 93 69 45 SW16G32 29.92F HX 98 WEST PLAINS MOSUNNY 89 64 43 SW8 29.99F HX 90 $$ IAZ060-094-KSZ022-034>040-054-083-096-NEZ052-066-093-222300- ...KANSAS...SOUTHEAST NEBRASKA AND IOWA... CITY SKY/WX TMP DP RH WIND PRES REMARKS TOPEKA MOSUNNY 97 70 41 SW17G32 29.80F HX 103 MANHATTAN MOSUNNY 94 73 50 SW12 29.79F HX 103 EMPORIA SUNNY 96 71 44 SW17G33 29.83F HX 103 OTTAWA MOSUNNY 97 73 46 SW23G31 29.81F HX 107 CHANUTE MOSUNNY 96 73 47 S20G28 29.86F HX 105 SALINA PTSUNNY 94 70 45 NW15 29.83S HX 100 WICHITA MOSUNNY 96 69 41 W20G31 29.84F HX 102 OMAHA CLOUDY 84 74 71 NW17 29.81R HX 91 LINCOLN MOSUNNY 87 72 60 NW16 29.85R HX 93 FALLS CITY MOSUNNY 93 74 53 S9 29.78F HX 103 LAMONI PTSUNNY 88 75 65 SW15G28 29.79F HX 97 DES MOINES CLOUDY 87 74 64 W9 29.76F HX 95 $$ ASUS43 KEAX 222210 RWREAX WEATHER ROUNDUP FOR EASTERN KANSAS AND NORTHWEST MISSOURI NATIONAL WEATHER SERVICE KANSAS CITY/PLEASANT HILL MO 500 PM CDT SAT JUN 22 2024 KSZ040-057-103>105-MOZ028-029-037-043-222300- ...KANSAS CITY METROPOLITAN AREA... CITY SKY/WX TMP DP RH WIND PRES REMARKS K.C. INTL PTSUNNY 91 75 59 SW12 29.82S HX 101 K.C. DOWNTOWN MOSUNNY 95 70 44 SW18G29 29.80F HX 101 LEES SUMMIT MOSUNNY 94 70 45 SW21G31 29.83F HX 100 OLATHE - IXD MOSUNNY 95 70 44 SW24G33 29.83F HX 101 OLATHE - OJC PTSUNNY 93 70 46 SW12G26 29.83F HX 99 LAWRENCE MOSUNNY 96 74 48 SW9G18 29.80F HX 107 $$ MOZ001>008-011>017-020>025-030>033-038>040-044>046-053-054-222300- ...NORTHERN AND CENTRAL MISSOURI... CITY SKY/WX TMP DP RH WIND PRES REMARKS ST. JOSEPH MOSUNNY 93 76 57 SW16G23 29.79F HX 105 HARRISONVILLE SUNNY 97 68 38 SW13G18 29.87R HX 101 WHITEMAN AFB SUNNY 94 71 46 SW21G28 29.82F HX 100 CLINTON MOSUNNY 93 72 49 S14 29.86S HX 100 SEDALIA SUNNY 90 70 51 S18G26 29.87F HX 95 MARSHALL SUNNY 90 73 58 S16 29.85F HX 98 CHILLICOTHE N/A 93 72 50 S10G25 29.80F HX 101 MOBERLY MOSUNNY 93 68 43 SW15G25 29.85F HX 97 KIRKSVILLE MOSUNNY 90 72 55 S15G25 29.83F HX 97 $$ MOZ041-047>049-056>058-063>065-088>090-097-222300- ...EASTERN AND SOUTHERN MISSOURI... CITY SKY/WX TMP DP RH WIND PRES REMARKS ST. LOUIS INTL PTSUNNY 94 67 41 SW14 29.89F HX 97 SPIRIT OF STL PTSUNNY 90 69 50 SW9 29.88F HX 94 COLUMBIA MOSUNNY 90 71 53 S14G23 29.88F HX 96 JEFFERSON CITY MOSUNNY 92 71 50 S15G24 29.87F HX 98 MEXICO PTSUNNY 90 73 58 S16G22 29.87F HX 98 HANNIBAL SUNNY 93 70 46 SW16G26 29.85F HX 99 ROLLA LGT RAIN 90 71 53 S16 29.95F HX 96 LEBANON MOSUNNY 90 70 51 SW15 29.96F HX 95 OSAGE BEACH MOSUNNY 91 72 53 SW16 29.91F HX 98 SPRINGFIELD MOSUNNY 90 70 51 SW16G23 29.94F HX 95 BRANSON MOSUNNY 90 68 48 SW6 29.99F HX 93 JOPLIN SUNNY 93 69 45 SW16G32 29.92F HX 98 WEST PLAINS MOSUNNY 89 64 43 SW8 29.99F HX 90 $$ IAZ060-094-KSZ022-034>040-054-083-096-NEZ052-066-093-222300- ...KANSAS...SOUTHEAST NEBRASKA AND IOWA... CITY SKY/WX TMP DP RH WIND PRES REMARKS TOPEKA MOSUNNY 97 70 41 SW17G32 29.80F HX 103 MANHATTAN MOSUNNY 94 73 50 SW12 29.79F HX 103 EMPORIA MOSUNNY 96 71 44 SW17G33 29.83F HX 103 OTTAWA MOSUNNY 97 73 46 SW23G31 29.81F HX 107 CHANUTE MOSUNNY 96 73 47 S20G28 29.86F HX 105 SALINA PTSUNNY 94 70 45 NW15 29.83S HX 100 WICHITA MOSUNNY 96 69 41 W20G31 29.84F HX 102 OMAHA CLOUDY 84 74 71 NW17 29.81R HX 91 LINCOLN MOSUNNY 87 72 60 NW16 29.85R HX 93 FALLS CITY MOSUNNY 93 74 53 S9 29.78F HX 103 LAMONI PTSUNNY 88 75 65 SW15G28 29.79F HX 97 DES MOINES CLOUDY 87 74 64 W9 29.76F HX 95 $$ ASUS43 KEAX 222215 RWREAX WEATHER ROUNDUP FOR EASTERN KANSAS AND NORTHWEST MISSOURI NATIONAL WEATHER SERVICE KANSAS CITY/PLEASANT HILL MO 500 PM CDT SAT JUN 22 2024 KSZ040-057-103>105-MOZ028-029-037-043-222300- ...KANSAS CITY METROPOLITAN AREA... CITY SKY/WX TMP DP RH WIND PRES REMARKS K.C. INTL PTSUNNY 91 75 59 SW12 29.82S HX 101 K.C. DOWNTOWN MOSUNNY 95 70 44 SW18G29 29.80F HX 101 LEES SUMMIT MOSUNNY 94 70 45 SW21G31 29.83F HX 100 OLATHE - IXD MOSUNNY 95 70 44 SW24G33 29.83F HX 101 OLATHE - OJC PTSUNNY 93 70 46 SW12G26 29.83F HX 99 LAWRENCE MOSUNNY 96 74 48 SW9G18 29.80F HX 107 $$ MOZ001>008-011>017-020>025-030>033-038>040-044>046-053-054-222300- ...NORTHERN AND CENTRAL MISSOURI... CITY SKY/WX TMP DP RH WIND PRES REMARKS ST. JOSEPH MOSUNNY 93 76 57 SW16G23 29.79F HX 105 HARRISONVILLE SUNNY 97 68 38 SW13G18 29.87R HX 101 WHITEMAN AFB SUNNY 94 71 46 SW21G28 29.82F HX 100 CLINTON MOSUNNY 93 72 49 S14 29.86S HX 100 SEDALIA SUNNY 90 70 51 S18G26 29.87F HX 95 MARSHALL SUNNY 90 73 58 S16 29.85F HX 98 CHILLICOTHE N/A 93 72 50 S10G25 29.80F HX 101 MOBERLY MOSUNNY 93 68 43 SW15G25 29.85F HX 97 KIRKSVILLE MOSUNNY 90 72 55 S15G25 29.83F HX 97 $$ MOZ041-047>049-056>058-063>065-088>090-097-222300- ...EASTERN AND SOUTHERN MISSOURI... CITY SKY/WX TMP DP RH WIND PRES REMARKS ST. LOUIS INTL PTSUNNY 94 67 41 SW14 29.89F HX 97 SPIRIT OF STL PTSUNNY 90 69 50 SW9 29.88F HX 94 COLUMBIA MOSUNNY 90 71 53 S14G23 29.88F HX 96 JEFFERSON CITY MOSUNNY 92 71 50 S15G24 29.87F HX 98 MEXICO PTSUNNY 90 73 58 S16G22 29.87F HX 98 HANNIBAL SUNNY 93 70 46 SW16G26 29.85F HX 99 ROLLA LGT RAIN 90 71 53 S16 29.95F HX 96 LEBANON MOSUNNY 90 70 51 SW15 29.96F HX 95 OSAGE BEACH MOSUNNY 91 72 53 SW16 29.91F HX 98 SPRINGFIELD MOSUNNY 90 70 51 SW16G23 29.94F HX 95 BRANSON MOSUNNY 90 68 48 SW6 29.99F HX 93 JOPLIN SUNNY 93 69 45 SW16G32 29.92F HX 98 WEST PLAINS MOSUNNY 89 64 43 SW8 29.99F HX 90 $$ IAZ060-094-KSZ022-034>040-054-083-096-NEZ052-066-093-222300- ...KANSAS...SOUTHEAST NEBRASKA AND IOWA... CITY SKY/WX TMP DP RH WIND PRES REMARKS TOPEKA MOSUNNY 97 70 41 SW17G32 29.80F HX 103 MANHATTAN MOSUNNY 94 73 50 SW12 29.79F HX 103 EMPORIA MOSUNNY 96 71 44 SW17G33 29.83F HX 103 OTTAWA MOSUNNY 97 73 46 SW23G31 29.81F HX 107 CHANUTE MOSUNNY 96 73 47 S20G28 29.86F HX 105 SALINA PTSUNNY 94 70 45 NW15 29.83S HX 100 WICHITA MOSUNNY 96 69 41 W20G31 29.84F HX 102 OMAHA CLOUDY 84 74 71 NW17 29.81R HX 91 LINCOLN MOSUNNY 87 72 60 NW16 29.85R HX 93 FALLS CITY MOSUNNY 93 74 53 S9 29.78F HX 103 LAMONI PTSUNNY 88 75 65 SW15G28 29.79F HX 97 DES MOINES CLOUDY 87 74 64 W9 29.76F HX 95 $$